• In Denmark
  • List of Countries
  • For 7 days
  • Water Temperature
  • Satellite Maps
  • Weather Map
  • Weather Widgets
  • user-avatar
    Login

    Hourly Weather Yeghegnadzor

    Today, 19 January, Friday

    Time Temperature Precipitation Wind Pressure Humidity
    00:00 -2°C° 0 mm 4 mps 644 mmHg 81%
    01:00 -2°C° 0 mm 4 mps 644 mmHg 82%
    02:00 -3°C° 0 mm 4 mps 644 mmHg 83%
    03:00 -3°C° 0 mm 4 mps 644 mmHg 84%
    04:00 -2°C° 0 mm 3 mps 644 mmHg 84%
    05:00 -2°C° 0 mm 3 mps 644 mmHg 83%
    06:00 -2°C° 0 mm 3 mps 644 mmHg 83%
    07:00 -1°C° 0 mm 3 mps 644 mmHg 82%
    08:00 -1°C° 0 mm 3 mps 644 mmHg 81%
    09:00 0°C° 0 mm 3 mps 645 mmHg 80%
    10:00 +2°C° 0 mm 2 mps 645 mmHg 79%
    11:00 +4°C° 0 mm 2 mps 645 mmHg 78%
    12:00 +5°C° 0 mm 2 mps 645 mmHg 76%
    13:00 +6°C° 0 mm 1 mps 645 mmHg 75%
    14:00 +6°C° 0 mm 1 mps 645 mmHg 74%
    15:00 +6°C° 0 mm 1 mps 645 mmHg 73%
    16:00 +5°C° 0 mm 1 mps 645 mmHg 72%
    17:00 +3°C° 0 mm 2 mps 645 mmHg 72%
    18:00 +1°C° 0 mm 2 mps 645 mmHg 71%
    19:00 +1°C° 0 mm 2 mps 645 mmHg 70%
    20:00 +1°C° 0 mm 2 mps 645 mmHg 69%
    21:00 +1°C° 0 mm 2 mps 646 mmHg 68%
    22:00 +1°C° 0 mm 2 mps 646 mmHg 68%
    23:00 +1°C° 0 mm 2 mps 646 mmHg 68%

    Tomorrow, 20 January, Saturday

    Time Temperature Precipitation Wind Pressure Humidity
    00:00 +1°C° 0 mm 2 mps 646 mmHg 68%
    01:00 +1°C° 0 mm 2 mps 647 mmHg 71%
    02:00 -1°C° 0 mm 2 mps 647 mmHg 73%
    03:00 -1°C° 0 mm 2 mps 647 mmHg 76%
    04:00 -1°C° 0 mm 2 mps 648 mmHg 77%
    05:00 -1°C° 0 mm 2 mps 648 mmHg 79%
    06:00 -2°C° 0 mm 2 mps 648 mmHg 81%
    07:00 +1°C° 0 mm 1 mps 649 mmHg 81%
    08:00 +1°C° 0 mm 1 mps 650 mmHg 80%
    09:00 +2°C° 0 mm 1 mps 650 mmHg 80%
    10:00 +3°C° 0 mm 1 mps 651 mmHg 79%
    11:00 +3°C° 0 mm 1 mps 651 mmHg 77%
    12:00 +4°C° 0 mm 1 mps 651 mmHg 76%
    13:00 +4°C° 0 mm 1 mps 651 mmHg 76%
    14:00 +5°C° 0 mm 1 mps 651 mmHg 76%
    15:00 +5°C° 0 mm 1 mps 651 mmHg 75%
    16:00 +3°C° 0 mm 1 mps 652 mmHg 77%
    17:00 +2°C° 0 mm 1 mps 652 mmHg 80%
    18:00 0°C° 0 mm 1 mps 652 mmHg 82%
    19:00 0°C° 0 mm 1 mps 652 mmHg 81%
    20:00 0°C° 0 mm 1 mps 652 mmHg 79%
    21:00 -1°C° 0 mm 1 mps 653 mmHg 78%
    22:00 -3°C° 0 mm 2 mps 653 mmHg 77%
    23:00 -3°C° 0 mm 2 mps 653 mmHg 76%

    Day after tomorrow, 21 January, Sunday

    Time Temperature Precipitation Wind Pressure Humidity
    00:00 -3°C° 0 mm 2 mps 653 mmHg 75%
    01:00 -3°C° 0 mm 2 mps 653 mmHg 73%
    02:00 -3°C° 0 mm 2 mps 653 mmHg 71%
    03:00 -3°C° 0 mm 2 mps 653 mmHg 69%
    04:00 -3°C° 0 mm 2 mps 653 mmHg 69%
    05:00 -3°C° 0 mm 2 mps 653 mmHg 69%
    06:00 -3°C° 0 mm 2 mps 653 mmHg 70%
    07:00 -2°C° 0 mm 2 mps 653 mmHg 69%
    08:00 -1°C° 0 mm 2 mps 654 mmHg 69%
    09:00 +1°C° 0 mm 2 mps 654 mmHg 69%
    10:00 +2°C° 0 mm 2 mps 654 mmHg 68%
    11:00 +3°C° 0 mm 2 mps 654 mmHg 66%
    12:00 +4°C° 0 mm 2 mps 653 mmHg 65%
    13:00 +4°C° 0 mm 2 mps 653 mmHg 65%
    14:00 +4°C° 0 mm 2 mps 653 mmHg 65%
    15:00 +4°C° 0 mm 2 mps 652 mmHg 66%
    16:00 +3°C° 0 mm 2 mps 652 mmHg 64%
    17:00 +1°C° 0 mm 2 mps 652 mmHg 62%
    18:00 -1°C° 0 mm 2 mps 652 mmHg 61%
    19:00 -1°C° 0 mm 2 mps 652 mmHg 58%
    20:00 -1°C° 0 mm 2 mps 652 mmHg 56%
    21:00 -1°C° 0 mm 2 mps 652 mmHg 53%
    22:00 -1°C° 0 mm 2 mps 651 mmHg 52%
    23:00 -1°C° 0 mm 2 mps 651 mmHg 52%

    22 January, Monday

    Time Temperature Precipitation Wind Pressure Humidity
    00:00 -1°C° 0 mm 2 mps 651 mmHg 51%
    01:00 -1°C° 0 mm 2 mps 651 mmHg 50%
    02:00 -1°C° 0 mm 2 mps 650 mmHg 50%
    03:00 -1°C° 0 mm 2 mps 650 mmHg 49%
    04:00 -1°C° 0 mm 2 mps 650 mmHg 49%
    05:00 +1°C° 0 mm 2 mps 649 mmHg 50%
    06:00 +1°C° 0 mm 2 mps 649 mmHg 50%
    07:00 +1°C° 0 mm 2 mps 649 mmHg 51%
    08:00 +2°C° 0 mm 2 mps 649 mmHg 52%
    09:00 +3°C° 0 mm 2 mps 649 mmHg 53%
    10:00 +4°C° 0 mm 2 mps 649 mmHg 55%
    11:00 +5°C° 0 mm 2 mps 649 mmHg 56%
    12:00 +6°C° 0 mm 2 mps 648 mmHg 58%
    13:00 +6°C° 0 mm 2 mps 648 mmHg 57%
    14:00 +6°C° 0 mm 2 mps 647 mmHg 57%
    15:00 +6°C° 0 mm 2 mps 647 mmHg 56%
    16:00 +4°C° 0 mm 2 mps 646 mmHg 54%
    17:00 +1°C° 0 mm 3 mps 646 mmHg 51%
    18:00 -1°C° 0 mm 3 mps 646 mmHg 48%
    19:00 -1°C° 0 mm 3 mps 646 mmHg 47%
    20:00 -1°C° 0 mm 3 mps 646 mmHg 46%
    21:00 -1°C° 0 mm 3 mps 646 mmHg 46%
    22:00 -2°C° 0 mm 3 mps 646 mmHg 47%
    23:00 -2°C° 0 mm 3 mps 646 mmHg 48%

    23 January, Tuesday

    Time Temperature Precipitation Wind Pressure Humidity
    00:00 -2°C° 0 mm 3 mps 646 mmHg 50%
    01:00 -2°C° 0 mm 3 mps 646 mmHg 51%
    02:00 -3°C° 0 mm 2 mps 646 mmHg 53%
    03:00 -3°C° 0 mm 2 mps 646 mmHg 54%
    04:00 -3°C° 0 mm 2 mps 646 mmHg 56%
    05:00 -3°C° 0 mm 2 mps 646 mmHg 57%
    06:00 -3°C° 0 mm 2 mps 646 mmHg 59%
    07:00 -2°C° 0 mm 2 mps 646 mmHg 59%
    08:00 -1°C° 0 mm 2 mps 646 mmHg 60%
    09:00 -1°C° 0 mm 2 mps 647 mmHg 61%
    10:00 +2°C° 0 mm 2 mps 647 mmHg 59%
    11:00 +3°C° 0 mm 2 mps 646 mmHg 58%
    12:00 +4°C° 0 mm 2 mps 646 mmHg 56%
    13:00 +4°C° 0 mm 2 mps 646 mmHg 57%
    14:00 +4°C° 0 mm 2 mps 646 mmHg 58%
    15:00 +4°C° 0 mm 2 mps 646 mmHg 59%
    16:00 +3°C° 0 mm 2 mps 645 mmHg 59%
    17:00 +2°C° 0 mm 2 mps 645 mmHg 60%
    18:00 -1°C° 0 mm 2 mps 645 mmHg 60%
    19:00 -1°C° 0 mm 2 mps 645 mmHg 59%
    20:00 -1°C° 0 mm 2 mps 645 mmHg 58%
    21:00 -1°C° 0 mm 2 mps 645 mmHg 57%
    22:00 -1°C° 0 mm 2 mps 646 mmHg 59%
    23:00 -1°C° 0 mm 2 mps 646 mmHg 61%

    24 January, Wednesday

    Time Temperature Precipitation Wind Pressure Humidity
    00:00 -1°C° 0 mm 2 mps 646 mmHg 63%
    01:00 -1°C° 0 mm 2 mps 646 mmHg 65%
    02:00 -1°C° 0 mm 2 mps 646 mmHg 66%
    03:00 -1°C° 0 mm 2 mps 646 mmHg 68%
    04:00 0°C° 0 mm 1 mps 646 mmHg 69%
    05:00 0°C° 0 mm 1 mps 646 mmHg 71%
    06:00 0°C° 0 mm 1 mps 646 mmHg 72%
    07:00 +1°C° 0 mm 1 mps 647 mmHg 71%
    08:00 +1°C° 0 mm 1 mps 647 mmHg 70%
    09:00 +2°C° 0 mm 1 mps 648 mmHg 70%
    10:00 +3°C° 0 mm 1 mps 648 mmHg 68%
    11:00 +4°C° 0 mm 1 mps 648 mmHg 66%
    12:00 +4°C° 0 mm 1 mps 648 mmHg 65%
    13:00 +5°C° 0 mm 1 mps 648 mmHg 65%
    14:00 +5°C° 0 mm 1 mps 648 mmHg 66%
    15:00 +5°C° 0 mm 1 mps 648 mmHg 67%
    16:00 +3°C° 0 mm 1 mps 648 mmHg 70%
    17:00 +2°C° 0 mm 1 mps 648 mmHg 73%
    18:00 +1°C° 0 mm 1 mps 648 mmHg 75%
    19:00 +1°C° 0 mm 1 mps 648 mmHg 75%
    20:00 +1°C° 0 mm 1 mps 649 mmHg 75%
    21:00 +1°C° 0 mm 1 mps 649 mmHg 75%
    22:00 +1°C° 0.1 mm 1 mps 649 mmHg 77%
    23:00 +1°C° 0.1 mm 1 mps 650 mmHg 79%
    Show more